CW8826 Weather Reports


Display with metric or nautical units.
time (UTC)temp
F
wind
direction
speed
MPH
gust
MPH
rain 1hr
in
rain 24hr
in
rain mn
in
humidity
%
barometer
mb
20260901011516 63 248 1.0 5.0 0.00 0.00 0.00 69 1018.3
20260901010516 63 225 1.0 4.0 0.00 0.00 0.00 69 1018.5
20260901005516 63 248 1.0 4.0 0.00 0.00 0.00 69 1018.7
20260901004516 64 248 2.0 6.0 0.00 0.00 0.00 66 1018.9
20260901003516 65 225 4.0 9.0 0.00 0.00 0.00 61 1018.8
20260901002516 65 180 7.0 14.0 0.00 0.00 0.00 59 1018.9
20260901001516 65 203 7.0 16.0 0.00 0.00 0.00 60 1018.7
20260901000536 65 158 8.0 18.0 0.00 0.00 0.00 61 1018.6
20260831235516 65 158 8.0 18.0 0.00 0.00 0.00 60 1018.6
20260831234517 65 135 11.0 21.0 0.00 0.00 0.00 60 1018.7
20260831233516 66 135 11.0 25.0 0.00 0.00 0.00 62 1018.5
20260831232517 69 225 8.0 18.0 0.00 0.00 0.00 54 1019.2
20260831231516 71 225 6.0 20.0 0.00 0.00 0.00 45 1017.9
20260831230516 74 315 8.0 24.0 0.00 0.00 0.00 43 1018.2
20260831225516 77 315 5.0 13.0 0.00 0.00 0.00 48 1017.8
20260831224516 78 248 2.0 10.0 0.00 0.00 0.00 43 1017.3
20260831223516 80 225 1.0 6.0 0.00 0.00 0.00 33 1017.1
20260831222536 80 158 3.0 9.0 0.00 0.00 0.00 30 1017.0
20260831221517 81 225 2.0 8.0 0.00 0.00 0.00 30 1016.9
20260831220516 81 203 3.0 9.0 0.00 0.00 0.00 28 1016.7
20260831215536 81 225 3.0 6.0 0.00 0.00 0.00 29 1017.2
20260831214516 82 225 3.0 7.0 0.00 0.00 0.00 28 1017.3
20260831213536 82 225 3.0 8.0 0.00 0.00 0.00 28 1017.6
20260831212516 83 135 2.0 7.0 0.00 0.00 0.00 28 1017.3
20260831211516 82 248 1.0 5.0 0.00 0.00 0.00 29 1017.4
20260831210516 82 225 3.0 8.0 0.00 0.00 0.00 28 1017.6
20260831205537 83 135 3.0 12.0 0.00 0.00 0.00 27 1018.0
20260831204516 83 158 4.0 10.0 0.00 0.00 0.00 27 1018.2
20260831203516 82 225 3.0 9.0 0.00 0.00 0.00 27 1018.4
20260831202516 82 248 3.0 11.0 0.00 0.00 0.00 28 1018.1
20260831201516 82 248 3.0 6.0 0.00 0.00 0.00 30 1018.3
20260831200516 81 248 2.0 8.0 0.00 0.00 0.00 32 1018.1
20260831195516 80 248 1.0 5.0 0.00 0.00 0.00 36 1018.8
20260831194517 80 0.0 3.0 0.00 0.00 0.00 38 1018.9
20260831193516 79 248 1.0 3.0 0.00 0.00 0.00 38 1019.2
20260831192536 78 248 1.0 3.0 0.00 0.00 0.00 39 1019.1
20260831191516 78 248 3.0 6.0 0.00 0.00 0.00 38 1019.1
20260831190516 79 248 1.0 7.0 0.00 0.00 0.00 36 1019.2
20260831185516 79 0.0 3.0 0.00 0.00 0.00 36 1019.3
20260831184516 79 270 2.0 5.0 0.00 0.00 0.00 36 1019.5
20260831183516 79 315 1.0 3.0 0.00 0.00 0.00 36 1019.7
20260831182516 78 248 2.0 4.0 0.00 0.00 0.00 37 1019.7
20260831181516 77 248 1.0 4.0 0.00 0.00 0.00 36 1019.8
20260831180516 77 270 1.0 3.0 0.00 0.00 0.00 36 1019.9
20260831175516 77 270 1.0 3.0 0.00 0.00 0.00 36 1020.1
20260831174516 76 270 1.0 3.0 0.00 0.00 0.00 35 1020.0
20260831173521 75 248 1.0 5.0 0.00 0.00 0.00 37 1019.8
20260831172516 75 0.0 3.0 0.00 0.00 0.00 40 1020.0
20260831171516 73 0.0 2.0 0.00 0.00 0.00 41 1019.8
20260831170516 72 248 3.0 6.0 0.00 0.00 0.00 41 1019.7
20260831165516 73 248 2.0 4.0 0.00 0.00 0.00 40 1019.6
20260831164517 73 248 2.0 5.0 0.00 0.00 0.00 39 1019.6
20260831163516 74 225 1.0 4.0 0.00 0.00 0.00 36 1019.9
20260831162516 74 0.0 0.0 0.00 0.00 0.00 38 1019.7
20260831161516 72 0.0 0.0 0.00 0.00 0.00 40 1019.4
20260831160516 71 248 2.0 6.0 0.00 0.00 0.00 42 1019.6
20260831155516 72 0.0 0.0 0.00 0.00 0.00 43 1019.5
20260831154516 71 0.0 0.0 0.00 0.00 0.00 41 1019.4
20260831153516 71 0.0 0.0 0.00 0.00 0.00 41 1019.7
20260831152516 70 113 1.0 3.0 0.00 0.00 0.00 39 1019.7
20260831151516 68 135 3.0 6.0 0.00 0.00 0.00 41 1019.4
20260831150516 67 113 1.0 3.0 0.00 0.00 0.00 41 1019.4
20260831145516 66 113 5.0 11.0 0.00 0.00 0.00 41 1019.1
20260831144556 65 113 2.0 5.0 0.00 0.00 0.00 41 1019.0
20260831143516 64 113 1.0 3.0 0.00 0.00 0.00 44 1018.9
20260831142536 64 113 1.0 3.0 0.00 0.00 0.00 42 1019.5
20260831141516 65 135 5.0 11.0 0.00 0.00 0.00 39 1019.4
20260831140516 64 90 3.0 9.0 0.00 0.00 0.00 40 1019.4
20260831135516 64 0.0 1.0 0.00 0.00 0.00 40 1019.2
20260831134516 64 135 3.0 7.0 0.00 0.00 0.00 36 1019.0
20260831133517 65 113 1.0 5.0 0.00 0.00 0.00 38 1018.9
20260831132516 64 113 6.0 16.0 0.00 0.00 0.00 34 1019.2
20260831131516 64 68 2.0 4.0 0.00 0.00 0.00 37 1019.2
20260831130516 65 113 6.0 12.0 0.00 0.00 0.00 36 1019.1
20260831125516 62 135 2.0 7.0 0.00 0.00 0.00 39 1018.8
20260831124516 62 135 1.0 2.0 0.00 0.00 0.00 42 1018.9
20260831123516 64 135 2.0 7.0 0.00 0.00 0.00 38 1019.2
20260831122516 63 113 2.0 7.0 0.00 0.00 0.00 40 1019.6
20260831121516 64 113 1.0 10.0 0.00 0.00 0.00 38 1019.7
20260831120516 64 113 2.0 9.0 0.00 0.00 0.00 38 1019.7
20260831115516 64 113 3.0 8.0 0.00 0.00 0.00 39 1019.4
20260831114516 65 113 6.0 10.0 0.00 0.01 0.00 37 1019.3
20260831113516 64 113 6.0 12.0 0.00 0.17 0.00 37 1019.4
20260831112516 63 135 6.0 9.0 0.00 0.17 0.00 40 1019.6
20260831111516 64 90 7.0 15.0 0.00 0.17 0.00 37 1019.7
20260831110516 65 68 3.0 6.0 0.00 0.17 0.00 37 1019.5
20260831105516 66 113 7.0 15.0 0.00 0.17 0.00 35 1019.8
20260831104516 66 90 8.0 14.0 0.00 0.17 0.00 35 1020.0
20260831103516 65 90 8.0 18.0 0.00 0.17 0.00 37 1019.8
20260831102516 65 113 6.0 14.0 0.00 0.17 0.00 38 1020.0
20260831101516 67 113 5.0 11.0 0.00 0.17 0.00 35 1020.1
20260831100516 67 113 10.0 17.0 0.00 0.17 0.00 35 1019.7
20260831095516 66 113 8.0 14.0 0.00 0.17 0.00 36 1019.5
20260831094516 65 113 7.0 13.0 0.00 0.17 0.00 39 1019.4
20260831093536 66 90 5.0 14.0 0.00 0.17 0.00 38 1019.4
20260831092516 66 90 5.0 12.0 0.00 0.17 0.00 37 1019.5
20260831091516 66 113 3.0 7.0 0.00 0.17 0.00 39 1019.3
20260831090516 65 90 3.0 7.0 0.00 0.17 0.00 40 1019.1
20260831085516 67 113 7.0 17.0 0.00 0.17 0.00 38 1019.7
20260831084516 66 90 4.0 9.0 0.00 0.17 0.00 38 1019.7
20260831083516 66 90 5.0 13.0 0.00 0.17 0.00 39 1019.3
20260831082516 66 90 3.0 6.0 0.00 0.17 0.00 39 1019.8
20260831081516 67 135 6.0 15.0 0.00 0.17 0.00 39 1020.0
20260831080516 65 113 6.0 15.0 0.00 0.17 0.00 38 1019.6
20260831075536 64 135 6.0 14.0 0.00 0.17 0.00 41 1020.0
20260831074516 65 135 5.0 9.0 0.00 0.17 0.00 40 1020.0
20260831073544 67 90 8.0 14.0 0.00 0.17 0.00 36 1020.3
20260831072516 66 113 8.0 15.0 0.00 0.17 0.00 37 1020.0
20260831071516 66 113 9.0 17.0 0.00 0.17 0.00 37 1020.0
20260831070516 66 113 9.0 19.0 0.00 0.17 0.00 38 1020.1
20260831065516 67 113 9.0 13.0 0.00 0.17 0.00 37 1020.0
20260831064516 67 113 8.0 15.0 0.00 0.17 0.00 36 1019.9
20260831063516 66 90 8.0 14.0 0.00 0.17 0.00 39 1019.6
20260831062536 65 113 10.0 16.0 0.00 0.17 0.00 42 1019.3
20260831061537 65 113 9.0 18.0 0.00 0.17 0.00 45 1019.5
20260831060516 66 113 6.0 12.0 0.00 0.17 0.00 42 1019.5
20260831055516 66 90 10.0 16.0 0.00 0.17 0.17 44 1019.3
20260831054536 66 113 9.0 16.0 0.00 0.17 0.17 45 1019.3
20260831053516 66 113 8.0 15.0 0.00 0.17 0.17 45 1019.4
20260831052517 65 90 9.0 15.0 0.00 0.17 0.17 49 1019.1
20260831051516 65 90 7.0 11.0 0.00 0.17 0.17 50 1019.1
20260831050516 65 113 9.0 15.0 0.00 0.17 0.17 51 1018.9
20260831045517 65 113 12.0 18.0 0.00 0.17 0.17 51 1018.7
20260831044516 65 113 12.0 21.0 0.00 0.17 0.17 54 1018.7
20260831043517 66 113 13.0 18.0 0.00 0.17 0.17 53 1018.7
20260831042516 66 113 11.0 17.0 0.00 0.17 0.17 53 1018.6
20260831041516 66 113 11.0 17.0 0.00 0.17 0.17 57 1018.7
20260831040537 65 113 10.0 17.0 0.00 0.17 0.17 58 1018.4
20260831035517 65 113 12.0 19.0 0.00 0.17 0.17 60 1018.2
20260831034517 65 113 10.0 17.0 0.00 0.17 0.17 60 1018.1
20260831033517 66 113 10.0 18.0 0.00 0.17 0.17 61 1018.0
20260831032536 66 113 12.0 18.0 0.00 0.17 0.17 61 1017.8
20260831031517 67 113 9.0 16.0 0.00 0.17 0.17 58 1017.7
20260831030517 67 113 9.0 14.0 0.00 0.17 0.17 59 1017.6
20260831025517 67 113 11.0 18.0 0.00 0.17 0.17 60 1017.1
20260831024516 67 113 12.0 16.0 0.00 0.17 0.17 63 1017.0
20260831023517 67 113 10.0 16.0 0.00 0.17 0.17 63 1017.0
20260831022516 68 113 11.0 15.0 0.00 0.17 0.17 63 1017.0
20260831021516 68 113 10.0 15.0 0.00 0.17 0.17 60 1016.9
20260831020516 69 113 7.0 13.0 0.00 0.17 0.17 62 1017.1
20260831015536 70 113 8.0 13.0 0.00 0.17 0.17 56 1017.1
20260831014537 71 135 3.0 11.0 0.00 0.17 0.17 58 1017.4
20260831013517 71 113 6.0 11.0 0.00 0.17 0.17 60 1017.1
20260831012517 72 113 9.0 13.0 0.00 0.17 0.17 58 1017.5